DateTimeUTC,F1_A11,F1_S11,BsB_S11,BsG_S11,BsR_S11,BbsB_S11,BbsG_S11,BbsR_S11,BaB_A11,BaG_A11,BaR_A11,Tu_S11,T_S11,Uu_S11,U_S11,P_S11,T1_A11
2021-12-07T22:00:00Z,00000200,21000000,,,,,,,0000.13,-000.35,0000.00,20.4,27.2,,00.0,0637.6,31.2
2021-12-07T22:01:00Z,00000200,21000000,,,,,,,-000.25,0000.29,0000.00,20.4,27.2,,00.0,0637.6,31.2
2021-12-07T22:02:00Z,00000200,21000000,,,,,,,0000.27,-000.00,0000.30,20.4,27.2,,00.0,0637.7,31.2
2021-12-07T22:03:00Z,00000200,61000000,,,,,,,-000.07,-000.08,-000.13,20.4,27.2,,00.0,0637.7,31.2
2021-12-07T22:04:00Z,00000200,41000000,-000.07,-000.02,-000.09,0000.62,0000.16,-000.03,0000.10,0000.30,-000.15,20.6,27.1,,00.0,0638.5,31.2
2021-12-07T22:05:00Z,00000200,01000000,0000.27,-000.02,0000.20,0000.24,0000.37,-000.09,0000.14,0000.11,0000.13,20.6,27.1,,00.0,0638.5,31.1
2021-12-07T22:06:00Z,00000200,01000000,0000.01,0000.09,-000.01,0000.02,0000.26,0000.58,-000.06,-000.05,-000.11,20.5,27.0,,00.0,0638.5,31.1
2021-12-07T22:07:00Z,00000200,01000000,-000.39,0000.11,0000.37,-000.19,0000.33,0000.04,0000.38,0000.03,0000.31,20.5,27.0,,00.0,0638.5,31.1
2021-12-07T22:08:00Z,00000200,01000000,-000.03,0000.03,0000.29,0000.02,0000.07,0000.57,0000.15,0000.39,0000.14,20.5,27.0,,00.0,0638.6,31.1
2021-12-07T22:09:00Z,00000200,01000000,0000.09,0000.56,0000.08,0000.56,0000.10,-000.05,0000.07,-000.16,-000.09,20.5,27.0,,00.0,0638.5,31.1
2021-12-07T22:10:00Z,00000200,01000000,0000.23,0000.30,-000.19,0000.32,-000.29,-000.13,0000.21,0000.36,0000.37,20.6,27.0,,00.0,0638.5,31.1
2021-12-07T22:11:00Z,00000200,01000000,-000.19,0000.29,-000.13,-000.08,-000.17,-000.08,0000.02,-000.15,0000.18,20.6,27.0,,00.0,0638.5,31.1
2021-12-07T22:12:00Z,00000200,01000000,0000.42,0000.13,0000.17,0000.64,0000.07,0000.02,0000.13,0000.23,-000.24,20.7,27.0,,00.0,0638.5,31.1
2021-12-07T22:13:00Z,00000200,01000000,0000.52,0000.01,-000.04,0000.29,0000.07,-000.13,-000.06,-000.01,0000.32,20.7,27.0,,00.0,0638.5,31.2
2021-12-07T22:14:00Z,00000200,01000000,0000.38,0000.20,0000.09,0000.48,0000.12,0000.07,0000.31,0000.48,-000.10,20.7,27.0,,00.0,0638.5,31.2
2021-12-07T22:15:00Z,00000200,01000000,0000.42,0000.19,0000.07,0000.36,0000.13,-000.27,-000.10,-000.15,0000.28,20.8,27.1,,00.0,0638.5,31.2
2021-12-07T22:16:00Z,00000200,01000000,-000.15,0000.46,0000.02,0000.65,-000.10,-000.09,0000.22,0000.20,0000.08,20.8,27.1,,00.0,0638.5,31.2
2021-12-07T22:17:00Z,00000200,01000000,0000.16,0000.38,-000.24,0000.15,-000.42,0000.14,0000.00,0000.13,0000.20,20.9,27.1,,00.0,0638.5,31.2
2021-12-07T22:18:00Z,00000200,01000000,0000.33,0000.17,0000.18,0000.27,0000.21,0000.03,0000.20,0000.26,-000.04,20.9,27.1,,00.0,0638.5,31.2
2021-12-07T22:19:00Z,00000200,01000000,0000.52,0000.11,0000.24,0000.36,0000.01,0000.29,0000.27,0000.01,0000.01,20.9,27.2,,00.0,0638.5,31.2
2021-12-07T22:20:00Z,00000200,01000000,0000.34,0000.04,0000.20,-000.09,-000.11,0000.18,-000.20,0000.08,-000.28,21.0,27.2,,00.0,0638.6,31.2
2021-12-07T22:21:00Z,00000200,01000000,-000.09,0000.34,0000.16,0000.38,0000.17,0000.05,0000.26,0000.22,0000.26,21.0,27.2,,00.0,0638.6,31.2
2021-12-07T22:22:00Z,00000200,01000000,0000.45,0000.46,-000.07,0000.09,0000.01,0000.27,-000.43,-000.26,-000.19,21.0,27.2,,00.0,0638.5,31.2
2021-12-07T22:23:00Z,00000200,01000000,0000.56,0000.26,0000.29,0000.22,0000.12,-000.11,0000.24,-000.25,0000.50,20.9,27.2,,00.0,0638.5,31.2
2021-12-07T22:24:00Z,00000200,01000000,-000.13,0000.14,-000.07,0000.00,-000.03,-000.04,-000.09,0000.14,-000.38,21.0,27.2,,00.0,0638.5,31.2
2021-12-07T22:25:00Z,00000200,01000000,0000.27,-000.08,-000.09,0000.42,0000.17,-000.19,0000.26,-000.04,0000.52,21.0,27.2,,00.0,0638.5,31.2
2021-12-07T22:26:00Z,00000200,01000000,0000.53,0000.12,0000.12,0000.54,-000.16,0000.18,0000.06,0000.07,-000.40,21.0,27.2,,00.0,0638.5,31.2
2021-12-07T22:27:00Z,00000200,01000000,0000.33,0000.30,0000.52,0000.51,-000.14,0000.64,-000.16,0000.33,-000.02,21.1,27.3,,00.0,0638.5,31.2
2021-12-07T22:28:00Z,00000200,01000000,-000.03,0000.11,-000.06,0000.31,0000.15,0000.08,0000.04,-000.16,0000.17,21.1,27.3,,00.0,0638.5,31.2
2021-12-07T22:29:00Z,00000200,01000000,0000.44,0000.19,-000.11,0000.60,0000.23,0000.05,0000.22,0000.15,0000.19,21.1,27.3,,00.0,0638.5,31.2
2021-12-07T22:30:00Z,00000200,01000000,0000.74,0000.16,0000.08,0000.03,0000.16,-000.09,0000.08,-000.13,-000.04,21.2,27.3,,00.0,0638.5,31.2
2021-12-07T22:31:00Z,00000200,01000000,0000.08,0000.14,-000.24,0000.20,0000.08,-000.12,0000.15,0000.13,-000.20,21.2,27.4,,00.0,0638.6,31.2
2021-12-07T22:32:00Z,00000200,01000000,-000.11,0000.27,0000.22,0000.61,0000.05,0000.08,0000.04,-000.08,0000.17,21.2,27.4,,00.0,0638.6,31.3
2021-12-07T22:33:00Z,00000200,01000000,0000.30,0000.29,0000.05,0000.17,0000.19,-000.14,0000.16,0000.17,0000.29,21.3,27.4,,00.0,0638.6,31.3
2021-12-07T22:34:00Z,00000200,01000000,0000.32,0000.05,0000.07,0000.57,0000.34,0000.01,-000.02,0000.27,-000.05,21.3,27.4,,00.0,0638.6,31.3
2021-12-07T22:35:00Z,00000200,01000000,-000.18,0000.27,0000.07,0000.12,0000.09,-000.02,-000.14,0000.19,0000.00,21.2,27.4,,00.0,0638.6,31.3
2021-12-07T22:36:00Z,00000200,01000000,0000.13,0000.18,-000.14,0000.05,-000.36,0000.01,0000.15,-000.53,0000.05,21.1,27.4,,00.0,0638.7,31.2
2021-12-07T22:37:00Z,00000200,01000000,-000.03,-000.16,0000.09,0000.26,-000.08,-000.04,0000.05,0000.38,0000.13,21.1,27.4,,00.0,0638.6,31.2
2021-12-07T22:38:00Z,00000200,01000000,0000.10,0000.02,-000.27,0000.10,0000.11,-000.17,0000.08,-000.23,-000.23,21.1,27.3,,00.0,0638.6,31.2
2021-12-07T22:39:00Z,00000200,01000000,0000.30,0000.20,0000.45,0000.07,-000.17,-000.16,-000.13,0000.10,0000.24,21.1,27.4,,00.0,0638.7,31.2
2021-12-07T22:40:00Z,00000200,01000000,-000.21,-000.00,0000.27,-000.21,-000.09,0000.08,0000.36,0000.70,0000.40,21.1,27.4,,00.0,0638.7,31.2
2021-12-07T22:41:00Z,00000200,01000000,0000.24,0000.01,0000.32,0000.22,-000.06,0000.12,0000.11,-000.19,-000.05,21.1,27.4,,00.0,0638.7,31.2
2021-12-07T22:42:00Z,00000200,01000000,0000.54,0000.06,0000.16,0000.45,-000.14,0000.13,0000.21,0000.32,-000.15,21.2,27.4,,00.0,0638.7,31.2
2021-12-07T22:43:00Z,00000200,01000000,0000.60,0000.08,-000.20,0000.41,0000.06,-000.05,-000.02,-000.43,0000.10,21.2,27.4,,00.0,0638.7,31.2
2021-12-07T22:44:00Z,00000200,01000000,-000.07,0000.31,0000.16,-000.44,-000.01,0000.43,0000.10,0000.52,0000.25,21.3,27.4,,00.0,0638.7,31.3
2021-12-07T22:45:00Z,00000200,01000000,-000.55,0000.25,0000.16,0000.66,0000.38,0000.23,0000.21,0000.52,-000.11,21.3,27.4,,00.0,0638.7,31.3
2021-12-07T22:46:00Z,00000200,01000000,0000.68,0000.09,-000.01,0001.10,0000.12,-000.02,0000.28,-000.24,0000.63,21.2,27.4,,00.0,0638.6,31.3
2021-12-07T22:47:00Z,00000200,01000000,0000.52,-000.05,0000.07,0000.49,0000.02,0000.17,0000.09,0000.13,-000.30,21.2,27.4,,00.0,0638.6,31.2
2021-12-07T22:48:00Z,00000200,01000000,-000.04,0000.03,-000.08,0000.68,0000.12,-000.23,0000.05,0000.24,0000.49,21.1,27.4,,00.0,0638.6,31.2
2021-12-07T22:49:00Z,00000200,01000000,0000.15,0000.06,-000.23,0000.52,0000.09,0000.01,0000.54,-000.02,-000.07,21.0,27.4,,00.0,0638.6,31.2
2021-12-07T22:50:00Z,00000200,01000000,-000.18,0000.01,-000.26,-000.33,-000.00,0000.23,-000.27,0000.07,-000.20,20.9,27.3,,00.0,0638.6,31.1
2021-12-07T22:51:00Z,00000200,01000000,0000.38,-000.02,-000.34,0000.55,-000.11,-000.20,0000.59,0000.32,0000.04,20.9,27.3,,00.0,0638.5,31.1
2021-12-07T22:52:00Z,00000200,01000000,0000.07,-000.03,0000.18,0000.56,0000.09,-000.09,-000.39,-000.26,0000.04,20.8,27.3,,00.0,0638.5,31.1
2021-12-07T22:53:00Z,00000200,01000000,-000.13,-000.04,-000.40,0000.88,0000.23,-000.28,0000.01,0000.30,-000.01,20.8,27.2,,00.0,0638.5,31.2
2021-12-07T22:54:00Z,00000200,01000000,-000.10,0000.31,-000.20,0000.73,0000.23,0000.11,0000.06,-000.41,0000.23,20.9,27.3,,00.0,0638.5,31.2
2021-12-07T22:55:00Z,00000200,01000000,-000.36,0000.31,-000.02,0000.29,-000.02,0000.11,0000.46,0000.31,-000.08,20.9,27.3,,00.0,0638.6,31.2
2021-12-07T22:56:00Z,00000200,01000000,-000.48,0000.12,-000.20,0000.78,0000.04,-000.07,-000.13,0000.19,0000.03,20.9,27.2,,00.0,0638.5,31.2
2021-12-07T22:57:00Z,00000200,41000000,,,,,,,0000.01,-000.01,0000.18,21.0,27.3,,00.0,0638.5,31.2
2021-12-07T22:58:00Z,00000200,61000000,,,,,,,0000.29,0000.23,-000.47,20.7,27.4,,00.0,0637.7,31.2
2021-12-07T22:59:00Z,00000200,21000000,,,,,,,-000.41,-000.08,0000.13,20.7,27.5,,00.0,0637.6,31.2
